Location: General Nathan Twining Observatory
(34.5931°N, 106.8201°W)
Time: 16:27:24
(UTC-06:00)

Daily predictions for brighter satellites

Satellite Brightness Start Highest point End
(mag) Time Altitude Azimuth Time Altitude Azimuth Time Altitude Azimuth
CZ-4C R/B 3.4 19:13:03 10° SW 19:18:03 45° NW 19:23:38 10° NNE
Meteor 2-5 Rocket 3.7 19:14:45 10° N 19:20:24 85° E 19:25:55 10° S
Meteor 1-24 Rocket 4.0 19:15:12 10° N 19:20:35 46° ENE 19:25:46 10° SSE
SJ-6B 3.4 19:17:37 10° SE 19:21:13 36° ENE 19:24:55 10° N
Cosmos 1437 3.0 19:22:11 10° N 19:25:21 48° E 19:28:31 10° SSE
Cosmos 921 Rocket 3.8 19:22:43 10° NNW 19:26:49 55° WSW 19:30:53 10° S
Cosmos 1464 Rocket 4.2 19:23:43 10° SSE 19:29:40 47° E 19:35:34 10° NNE
GPS 2-04 Rocket1 3.8 19:35:55 10° SSW 19:38:45 23° SSE 19:41:01 14° ESE
Cosmos 2333 Rocket 4.3 19:34:52 10° WSW 19:39:53 30° WNW 19:44:56 10° N
Spot 2 Rocket 4.0 19:36:07 10° SE 19:40:46 39° ENE 19:45:26 10° N
Cosmos 1076 Rocket 4.0 19:38:07 10° NNE 19:42:09 37° E 19:46:10 10° SSE
Cosmos 1484 Rocket 3.7 19:39:53 10° S 19:43:35 52° W 19:47:22 10° NNW
Cosmos-2242 3.8 19:39:51 10° SSE 19:43:38 30° E 19:47:27 10° NNE
Helios 1B rocket 2.7 19:40:30 10° NNE 19:44:26 44° E 19:48:22 10° S
SL-8 R/B 4.3 19:41:35 10° SSW 19:45:58 37° SE 19:49:42 14° ENE
Cosmos 2056 Rocket 3.5 19:42:39 10° NNW 19:48:06 81° ENE 19:53:30 10° SSE
CENTAUR R/B 3.6 19:45:10 10° SSE 19:49:11 19° ESE 19:53:12 11° ENE
NOSS 3-2 (C) 3.4 19:43:14 10° SSW 19:49:12 86° ESE 19:55:42 10° NNE
NOAA 12 4.1 19:50:39 10° SSE 19:55:53 87° ENE 20:01:11 10° NNW
ASTRO E2 3.0 19:52:11 10° WSW 19:56:07 54° S 19:58:31 22° ESE
In-Cosmos 22 4.4 19:52:11 10° N 19:57:48 51° ENE 20:03:21 10° SSE
Cosmos 1408 Rocket 3.6 19:56:04 10° N 20:00:19 53° E 20:04:32 10° SSE
Abrixas 3.0 19:58:33 10° SSW 20:01:22 39° SE 20:02:06 32° E
Aureole 2 Rocket 4.3 19:58:09 10° SW 20:02:19 44° WNW 20:06:29 10° N
Atlas Centaur 2 3.5 19:54:27 10° W 20:02:43 53° SSW 20:08:50 17° SE
Cosmos 1766 4.2 19:59:44 10° SSW 20:03:35 52° W 20:07:29 10° N
HJ-1C 3.2 20:01:40 10° SSE 20:04:59 70° ENE 20:08:21 10° N
ATLAS CENTAUR R/B 2.1 20:02:33 10° NW 20:06:31 49° WSW 20:10:10 10° S
Resurs 01 Rocket 1.5 20:03:56 10° SSE 20:08:22 74° ENE 20:12:48 10° N
Resurs 1-3 3.6 20:05:30 10° SSE 20:09:48 57° ENE 20:14:07 10° N
ATLAS 5 CENTAUR R/B 2.1 20:08:30 10° SW 20:13:11 68° WNW 20:18:14 10° NNE
CZ-2D R/B 3.9 20:18:24 35° ENE 20:18:24 35° ENE 20:21:58 10° N
Elektron 1 4.0 20:15:38 10° SSW 20:18:26 47° SE 20:18:26 47° SE
Meteor 1-29 3.2 20:16:47 10° N 20:20:16 69° WNW 20:23:44 10° SSW
ISS -2.2 20:20:10 10° SSW 20:22:15 30° S 20:22:15 30° S
SL-16 R/B 3.9 20:19:43 10° SW 20:24:52 35° WNW 20:30:04 10° N
Cosmos 1953 2.6 20:20:55 10° SSW 20:24:53 69° W 20:28:51 10° N
BREEZE-M TANK 3.5 20:20:40 10° WNW 20:27:41 47° SW 20:29:14 27° SSE
Cosmos 1743 Rocket 3.7 20:23:38 10° N 20:27:58 50° E 20:28:39 45° ESE
USA 215 4.0 20:21:44 10° NNE 20:28:00 51° NW 20:34:16 10° WSW
Gbstr 26 Del rocket 3.6 20:27:12 10° SSW 20:31:12 42° SE 20:31:12 42° SE
Helios 1A 3.4 20:27:42 10° S 20:31:50 63° W 20:36:00 10° NNW
ATLAS CENTAUR R/B 4.4 20:28:10 10° WSW 20:33:10 51° NNW 20:48:26 10° NE
Cosmos 1805 4.2 20:31:36 10° SSW 20:35:23 49° W 20:39:14 10° N
H-2A R/B 2.9 20:36:26 57° NE 20:36:26 57° NE 20:39:57 10° N
Cosmos 1544 3.3 20:33:42 10° SSW 20:37:24 72° W 20:41:09 10° N
OAO 1 Rocket 4.4 20:32:58 10° W 20:38:22 88° N 20:39:52 49° E
CZ-4B DEB 3.3 20:39:32 52° NNW 20:39:32 52° NNW 20:42:06 10° NNW
SeaSat 1 2.3 20:36:07 10° NNE 20:41:03 70° ESE 20:45:58 10° SSW
Nadezhda 4 Rocket 3.9 20:37:12 10° N 20:43:30 81° E 20:48:44 15° S
Cosmos 1452 Rocket 3.6 20:39:30 10° NNW 20:44:45 73° WSW 20:47:54 24° S
ALOS 2.2 20:42:51 28° S 20:45:21 81° W 20:50:02 10° NNW
Cosmos 1092 Rocket 3.9 20:43:24 10° N 20:49:34 64° E 20:51:19 46° SE
SEDSat Delta rocket 4.1 20:43:57 10° W 20:50:40 68° S 20:52:20 51° ESE
OAO 3 Rocket 3.0 20:46:04 10° W 20:50:52 85° N 20:51:10 78° ENE
FENGYUN 3A 3.7 20:48:13 21° S 20:51:51 77° WSW 20:57:15 10° NNW
Cosmos 1634 Rocket 3.8 20:53:53 10° S 21:00:07 72° E 21:06:19 10° N
Cosmos 1420 Rocket 3.9 21:02:28 10° NNW 21:07:48 84° WSW 21:07:54 83° SW
Cosmos 1943 3.5 21:03:07 10° SSW 21:14:49 - NNE 21:07:18 52° S
Cosmos 2369 Rocket 3.1 21:06:59 10° N 21:10:42 36° NNE 21:10:42 36° NNE
Cosmos 1943 Rocket 4.2 21:15:21 10° N 21:16:47 15° NNE 21:16:47 15° NNE
CENTAUR R/B 2.9 21:33:12 10° SW 21:39:03 58° NW 21:40:44 45° N
Atlas Centaur 2 4.3 21:45:16 10° W 21:51:29 26° SSW 21:51:29 26° SSW
